Terminal Aerodrome Forecast
Issued by NWS St Louis, MO

Home | Current Version | Previous Version | Graphics & Text | Print | Product List | Glossary On
Versions: 1 2 3 4 5 6 7 8 9 10 11 12 13 14 15 16 17 18
000
FTUS43 KLSX 261931 AAA
TAFCOU
TAF AMD
KCOU 261931Z 2620/2718 VRB04KT P6SM SCT150
     FM262300 16013KT P6SM VCTS BKN060CB
     FM270400 17008KT 6SM -TSRA BKN060CB
     FM270800 14007KT P6SM VCTS OVC060CB
     FM271500 15008KT P6SM -SHRA VCTS SCT030 OVC050CB=

USA.gov is the U.S. government's official web portal to all federal, state and local government web resources and services.